DMSP 5D-2 F13 DEB, 40497

Orbit data source: Space-Track

DMSP 5D-2 F13 DEB, 40497 is space debris in SSO originally from a launch on Fri, 24 Mar 1995 UTC launched from the Air Force Western Test Range (AFWTR). Debris objects in space refer to the collection of defunct objects orbiting the Earth. Examples of debris include non-operational satellites, rocket bodies, and fragments generated from explosions, collisions, or faulty payload assembly.

Loading next visibility...
Identifier
40497, 1995-015CL
Orbit
SSO
Country
Flag of USUS
Related business
Manufacturer
Unknown
Mission
Spacecraft
Bus & Motor
Unknown
Mass
Unknown
Launch date (UTC)
1995-03-24 (31 years ago)
Launch vehicle
Unknown
Launch site
Air Force Western Test Range (AFWTR)
Object type
Payload
Rocket body
Debris
Shape & HBR
Unknown shape, 0.1 m
Radar Cross Section
Small (<0.1 m²)

Expand to show TLE details & history
Last TLE update: 3 days ago

TLE from 3 days ago
0 DMSP 5D-2 F13 DEB
1 40497U 95015CL  26125.32478163  .00005806  00000-0  17798-2 0  9997
2 40497  98.6758 166.4782 0006678 124.6266 235.5553 14.42059836579222
Epoch: 2026-05-05T07:47Z
TLE epoch observation values (Epoch: 2026-05-05T07:47:41.132Z)
Latitude
-0.00007°
Longitude
-173.64443°
Altitude
757.342 km
Speed
7.474 km/s
True Right ascension
11h 05m 54s
True Declination
0° 00' 00"
Sunlit
Object was in full shadow at epoch
Visualization orbit readout
Latitude
Unknown
Longitude
Unknown
Altitude
Unknown
Speed
Unknown
Apparent Right ascension
Unknown
Apparent Declination
Unknown
Sunlit
N/A
Visualization observer readout
Local Sidereal Time
04:07:39
Azimuth
Unknown
Elevation
Unknown
Doppler factor
Unknown
Orbital elements
Apogee altitude
753.588 km
Perigee altitude
744.069 km
Semi-major axis
7,126.965 km
Eccentricity
0.00067
Inclination
98.6758°
RAAN
166.4782°
Arg. of periapsis
124.6266°
True anomaly
235.49222°
Mean anomaly
235.5553°
Eccentric anomaly
235.52376°
Mean motion
3.60733 °/min
Orbital period
99.8 mins
BSTAR
0.0017798

Documentation

Showing up to 5 results
|